Regional Weather Roundup
Issued by NWS

Home | Current Version | Previous Version | Text Only | Print | Product List | Glossary On
Versions: 1 2 3 4 5 6 7 8 9 10 11 12 13 14 15 16 17 18 19 20 21 22 23 24 25 26 27 28 29 30 31 32 33 34 35 36 37 38 39 40 41 42 43 44 45 46 47 48 49 50
000
ASUS45 KABQ 292210
RWRNM
NEW MEXICO REGIONAL WEATHER ROUNDUP
NATIONAL WEATHER SERVICE ALBUQUERQUE NM
400 PM MDT SAT APR 29 2017

NOTE: "FAIR" MEANS FEW OR NO CLOUDS BELOW 12,000 FEET AGL WITH NO
       SIGNIFICANT WEATHER OR OBSTRUCTIONS TO VISION.

      THIS PRODUCT IS RELEASED AS TWO VERSIONS.  ONE VERSION NEAR
      THE TOP OF THE HOUR CONTAINING PRELIMINARY DATA FROM ALBUQUERQUE
      AND OTHER STATIONS.  A FINAL VERSION WITH ADDITIONAL DATA IS
      ISSUED ABOUT 10 MINUTES AFTER THE HOUR.

NMZ501-503-504-510>518-292300-
NORTHWEST PLATEAU/NORTHCENTRAL MOUNTAINS

CITY           SKY/WX    TMP DP  RH WIND       PRES   REMARKS
FARMINGTON     LGT RAIN  41  32  70 N18       29.96S
LOS ALAMOS     CLOUDY    34  24  67 NE13G21   29.95F WCI  25
SANTA FE       PTSUNNY   37  29  72 N23       29.91F WCI  26
TAOS             N/A     34  16  47 N20G28    29.95S WCI  22
ANGEL FIRE     LGT SNOW  24  21  86 N9        29.94S WCI  15

$$
NMZ402-403-502-505>509-292300-
WESTCENTRAL MOUNTAINS/SOUTHWEST MOUNTAINS

CITY           SKY/WX    TMP DP  RH WIND       PRES   REMARKS
GALLUP         LGT SNOW  36  33  89 CALM      30.00S FOG
GRANTS         FAIR      45  27  48 NW17G23   29.94S
SILVER CITY    PTSUNNY   58  10  15 W15G31    29.90S

$$
NMZ407-409-411-412-292300-
SOUTHERN DESERTS

CITY           SKY/WX    TMP DP  RH WIND       PRES   REMARKS
DEMING         PTSUNNY   64   5   9 W15G29    29.87S
LAS CRUCES     FAIR      59  23  25 N12G18    29.90S
HOLLOMAN AFB   FAIR      53  33  46 N18       29.94F
ALAMOGORDO     FAIR      54  32  43 N13G24    29.92S
T OR C         CLOUDY    50  26  39 N7        29.94R

$$
NMZ519>523-292300-
CENTRAL VALLEYS/CENTRAL HIGHLANDS

CITY           SKY/WX    TMP DP  RH WIND       PRES   REMARKS
ALBUQUERQUE    PTSUNNY   47  29  49 N7        29.93S
DOUBLE EAGLE   PTSUNNY   45  30  57 NE17G25   29.94S
MORIARTY ARPT  CLOUDY    39  34  84 N13       29.96R WCI  31
CLINES CORNERS CLOUDY    34  28  79 CALM      29.93S
BELEN          CLOUDY    44  33  63 W21G31    29.94S
SOCORRO        LGT RAIN  42  36  79 N13       29.97R

$$
NMZ524>526-539-540-292300-
SOUTHCENTRAL MOUNTAINS

CITY           SKY/WX    TMP DP  RH WIND       PRES   REMARKS
RUIDOSO        PTSUNNY   32  27  80 N12       29.94S WCI  23

$$
NMZ527>531-292300-
NORTHEAST HIGHLANDS/NORTHEAST PLAINS

CITY           SKY/WX    TMP DP  RH WIND       PRES   REMARKS
LAS VEGAS      SNOW      28  25  88 NE15      29.95R VSB 1/2 WCI  16
RATON          FLURRIES  31  20  63 N33G44    29.93R WCI  15
CLAYTON        LGT SNOW  32  30  92 N32G43    29.89S FOG     WCI  17

$$
NMZ532>537-292300-
EASTCENTRAL PLAINS

CITY           SKY/WX    TMP DP  RH WIND       PRES   REMARKS
SANTA ROSA     LGT SNOW  34  34  97 N21G35    29.96R WCI  23
TUCUMCARI      LGT SNOW  34  33  96 N13       29.95R VSB 3/4 WCI  25
CANNON AFB     FLURRIES  37  37 100 N12G26    29.90R WCI  30
CLOVIS AIRPORT CLOUDY    37  30  75 N25G33    29.88R WCI  26

$$
NMZ028-029-538-292300-
SOUTHEAST PLAINS

CITY           SKY/WX    TMP DP  RH WIND       PRES   REMARKS
ROSWELL        LGT RAIN  45  38  76 N21       29.98R
ARTESIA        PTSUNNY   43  43 100 N22G29    29.92F
CARLSBAD       CLOUDY    43  42  97 N24G30    29.90R
HOBBS          LGT RAIN  46  43  87 CALM      29.86F


$$




USA.gov is the U.S. government's official web portal to all federal, state and local government web resources and services.